User: anonymous   Login
Location: Unspecified
(0.0000°N, 0.0000°E)
Time: 16:39:26
(UTC+00:00)
Language:

QSS - Orbit

View from above orbital plane
View from above orbital plane
View from above satellite
View from above satellite

Ground track
Ground track

The orbit data is extracted from the following two-line orbital elements,

1 41731U 16051A   21337.21598300  .00001328  00000-0  54593-4 0  9997
2 41731  97.3411 246.6906 0011340 285.4545 234.1566 15.25882731294934
Epoch (UTC): 03 December 2021 05:11:00
Eccentricity: 0.0011340
inclination: 97.3411°
perigee height: 480 km
apogee height: 496 km
right ascension of ascending node: 246.6906°
argument of perigee: 285.4545°
revolutions per day: 15.25882731
mean anomaly at epoch: 234.1566°
orbit number at epoch: 29493

The dashed part of the orbit path shows where the satellite is in the earth's shadow,  

DLR